CZ-6A DEB, 54631

Orbit data source: Space-Track

CZ-6A DEB, 54631 is space debris in SSO originally from a launch on Fri, 11 Nov 2022 UTC launched from the Taiyaun Space Center, China (TSC). Debris objects in space refer to the collection of defunct objects orbiting the Earth. Examples of debris include non-operational satellites, rocket bodies, and fragments generated from explosions, collisions, or faulty payload assembly.

Loading next visibility...
Identifier
54631, 2022-151PH
Orbit
SSO
Country
Flag of CNCN / PRC
Related business
Manufacturer
SAST
Mission
Spacecraft
Bus & Motor
Unknown
Mass
Unknown
Launch date (UTC)
2022-11-11 (4 years ago)
Launch vehicle
Unknown
Launch site
Taiyaun Space Center, China (TSC)
Object type
Payload
Rocket body
Debris
Shape & HBR
Unknown shape, 0.1 m
Radar Cross Section
Medium (>0.1 m² and <1 m²)

Expand to show TLE details & history
Last TLE update: 1 day ago

TLE from 1 day ago
0 CZ-6A DEB
1 54631U 22151PH  26235.12200993  .00010139  00000-0  17350-2 0  9996
2 54631  98.6260 297.8765 0074655  99.3312 261.6342 14.67202064198598
Epoch: 2026-08-23T02:55Z
TLE epoch observation values (Epoch: 2026-08-23T02:55:41.657Z)
Latitude
-0.00005°
Longitude
-77.46967°
Altitude
681.037 km
Speed
7.512 km/s
True Right ascension
19h 51m 30s
True Declination
0° 00' 00"
Sunlit
Object was in full shadow at epoch
Visualization orbit readout
Latitude
Unknown
Longitude
Unknown
Altitude
Unknown
Speed
Unknown
Apparent Right ascension
Unknown
Apparent Declination
Unknown
Sunlit
N/A
Visualization observer readout
Local Sidereal Time
17:51:26
Azimuth
Unknown
Elevation
Unknown
Doppler factor
Unknown
Orbital elements
Apogee altitude
719.702 km
Perigee altitude
614.51 km
Semi-major axis
7,045.243 km
Eccentricity
0.00747
Inclination
98.626°
RAAN
297.8765°
Arg. of periapsis
99.3312°
True anomaly
260.789°
Mean anomaly
261.6342°
Eccentric anomaly
261.21148°
Mean motion
3.67028 °/min
Orbital period
98.09 mins
BSTAR
0.001735
Loading maneuver chart data...
Computing Atmospheric mass density...

Documentation

Showing up to 5 results
|